Weather History for Abingdon, VA

Change the Weather History Date:

Sunday, January 5, 2014

  Actual Average (KTRI) Record (KTRI)
Temperature  
Mean Temperature 44 °F 35 °F  
Max Temperature 57 °F 45 °F 74 °F (1950)
Min Temperature 30 °F 25 °F -6 °F (1969)
Degree Days  
Heating Degree Days 22 30  
Month to date heating degree days 150  
Since 1 July heating degree days 1879  
Cooling Degree Days 0 0  
Month to date cooling degree days 0  
Year to date cooling degree days 0  
Moisture  
Dew Point 37 °F    
Average Humidity 80    
Maximum Humidity 95    
Minimum Humidity 63    
Precipitation  
Precipitation 0.00 in 0.11 in 1.40 in (2004)
Month to date precipitation 0.52  
Year to date precipitation 0.52  
Snow  
Snow 0.00 in 0.20 in - ()
Month to date snowfall 0.7  
Since 1 July snowfall 3.4  
Snow Depth -    
Sea Level Pressure  
Sea Level Pressure 29.91 in    
Wind  
Wind Speed 5 mph (SE)    
Max Wind Speed 17 mph    
Max Gust Speed 26 mph    
Visibility 10 miles    
Events      
T = Trace of Precipitation, MM = Missing Value Source: NWS Daily Summary

Daily Weather History Graph

Daily Weather History Graph

Search for Another Location

Airport:

Trip Planner

Search our weather history database for the weather conditions in past years. The results will help you decide how hot, cold, wet, or windy it might be!

Date:

Astronomy

Jan. 05, 2014 Rise Set
Actual Time 7:41 AM EST 5:26 PM EST
Civil Twilight 7:12 AM EST 5:55 PM EST
Nautical Twilight 6:40 AM EST 6:27 PM EST
Astronomical Twilight 6:08 AM EST 6:58 PM EST
Moon 10:30 AM EST (1/5) 10:43 PM EST (1/5)
Length of Visible Light 10h 42m
Length of Day
9h 45m
Waxing Crescent, 24% of the Moon is Illuminated
Jan 5
Waxing Crescent
Jan 7
First Quarter
Jan 15
Full
Jan 24
Last Quarter
Jan 30
New

Hourly Weather History & Observations

Time (EST) Temp. Windchill Dew Point Humidity Pressure Visibility Wind Dir Wind Speed Gust Speed Precip Events Conditions
12:15 AM 30.6 °F 23.8 °F 21.2 °F 68% 30.12 in 10.0 mi East 6.9 mph - N/A   Clear
12:35 AM 31.6 °F 23.7 °F 20.5 °F 63% 30.12 in 10.0 mi East 9.2 mph - N/A   Clear
12:55 AM 32.2 °F 24.4 °F 21.0 °F 63% 30.12 in 10.0 mi East 9.2 mph - N/A   Clear
1:15 AM 32.0 °F 24.8 °F 21.4 °F 65% 30.12 in 10.0 mi East 8.1 mph - N/A   Clear
1:35 AM 32.0 °F 24.8 °F 22.1 °F 67% 30.11 in 10.0 mi East 8.1 mph - N/A   Clear
1:55 AM 31.6 °F 25.1 °F 22.1 °F 68% 30.11 in 10.0 mi East 6.9 mph - N/A   Clear
2:15 AM 30.7 °F 24.9 °F 22.5 °F 71% 30.12 in 10.0 mi East 5.8 mph - N/A   Clear
2:35 AM 32.0 °F 27.5 °F 24.1 °F 73% 30.11 in 10.0 mi East 4.6 mph - N/A   Clear
2:55 AM 32.5 °F 27.1 °F 25.3 °F 75% 30.11 in 10.0 mi East 5.8 mph - N/A   Clear
3:15 AM 32.0 °F 24.2 °F 24.6 °F 74% 30.10 in 10.0 mi East 9.2 mph - N/A   Clear
3:35 AM 32.0 °F 23.6 °F 25.2 °F 76% 30.09 in 10.0 mi East 10.4 mph - N/A   Clear
3:55 AM 32.4 °F 29.1 °F 26.6 °F 79% 30.09 in 10.0 mi East 3.5 mph - N/A   Scattered Clouds
4:15 AM 32.0 °F 24.8 °F 27.1 °F 82% 30.09 in 10.0 mi East 8.1 mph - N/A   Scattered Clouds
4:35 AM 32.0 °F - 26.8 °F 81% 30.09 in 10.0 mi Calm Calm - N/A   Mostly Cloudy
4:55 AM 32.0 °F - 27.5 °F 83% 30.09 in 10.0 mi Calm Calm - N/A   Mostly Cloudy
5:15 AM 31.3 °F 26.6 °F 26.6 °F 83% 30.08 in 10.0 mi ESE 4.6 mph - N/A   Scattered Clouds
5:35 AM 30.7 °F 24.1 °F 26.6 °F 85% 30.08 in 10.0 mi ESE 6.9 mph - N/A   Clear
5:55 AM 31.5 °F - 27.5 °F 85% 30.08 in 10.0 mi Calm Calm - N/A   Clear
6:15 AM 32.2 °F 25.8 °F 29.3 °F 89% 30.07 in 10.0 mi East 6.9 mph - N/A   Clear
6:35 AM 33.8 °F 28.6 °F 30.7 °F 89% 30.07 in 10.0 mi East 5.8 mph - N/A   Clear
6:55 AM 33.8 °F - 30.9 °F 89% 30.07 in 10.0 mi Calm Calm - N/A   Clear
7:15 AM 33.4 °F 26.6 °F 32.2 °F 95% 30.07 in 10.0 mi East 8.1 mph - N/A   Clear
7:35 AM 35.8 °F 29.4 °F 34.0 °F 93% 30.07 in 10.0 mi East 8.1 mph - N/A   Clear
7:55 AM 35.4 °F 32.6 °F 33.8 °F 94% 30.06 in 10.0 mi East 3.5 mph - N/A   Clear
8:15 AM 35.6 °F - 34.3 °F 95% 30.06 in 10.0 mi Calm Calm - N/A   Mostly Cloudy
8:35 AM 37.8 °F 33.3 °F 35.4 °F 91% 30.06 in 10.0 mi East 5.8 mph - N/A   Overcast
8:55 AM 40.5 °F 38.4 °F 38.3 °F 92% 30.06 in 10.0 mi East 3.5 mph - N/A   Overcast
9:15 AM 39.6 °F - 37.2 °F 91% 30.04 in 10.0 mi Calm Calm - N/A   Overcast
9:35 AM 41.4 °F 39.4 °F 37.9 °F 88% 30.04 in 10.0 mi SSW 3.5 mph - N/A   Overcast
9:55 AM 42.6 °F 37.8 °F 38.7 °F 86% 30.05 in 10.0 mi SW 8.1 mph - N/A   Mostly Cloudy
10:15 AM 41.0 °F - 37.8 °F 88% 30.02 in 10.0 mi Calm Calm - N/A   Scattered Clouds
10:35 AM 41.4 °F - 37.8 °F 87% 30.02 in 10.0 mi Calm Calm - N/A   Mostly Cloudy
10:55 AM 42.4 °F - 38.3 °F 85% 30.01 in 10.0 mi Calm Calm - N/A   Mostly Cloudy
11:15 AM 42.6 °F - 38.3 °F 85% 30.00 in 10.0 mi Calm Calm - N/A   Overcast
11:35 AM 43.7 °F - 39.2 °F 84% 29.99 in 10.0 mi Calm Calm - N/A   Overcast
11:55 AM 45.1 °F - 40.3 °F 83% 29.96 in 10.0 mi Calm Calm - N/A   Scattered Clouds
12:15 PM 47.3 °F - 41.0 °F 79% 29.94 in 10.0 mi Calm Calm - N/A   Clear
12:35 PM 48.2 °F - 41.4 °F 77% 29.91 in 10.0 mi Calm Calm - N/A   Clear
12:55 PM 48.9 °F - 41.9 °F 77% 29.89 in 10.0 mi Calm Calm - N/A   Clear
1:15 PM 50.0 °F - 42.8 °F 76% 29.88 in 10.0 mi Calm Calm - N/A   Clear
1:35 PM 50.5 °F - 43.2 °F 76% 29.86 in 10.0 mi Calm Calm - N/A   Clear
1:55 PM 51.4 °F - 43.7 °F 75% 29.85 in 10.0 mi Calm Calm - N/A   Clear
2:15 PM 52.7 °F - 44.6 °F 74% 29.83 in 10.0 mi Calm Calm - N/A   Clear
2:35 PM 54.1 °F - 45.1 °F 72% 29.81 in 10.0 mi Calm Calm - N/A   Clear
2:55 PM 56.3 °F - 45.9 °F 68% 29.80 in 10.0 mi Calm Calm - N/A   Clear
3:15 PM 55.9 °F - 45.9 °F 69% 29.80 in 10.0 mi Calm Calm - N/A   Clear
3:35 PM 56.5 °F - 46.0 °F 68% 29.79 in 10.0 mi Calm Calm - N/A   Clear
3:55 PM 56.3 °F - 46.0 °F 68% 29.80 in 10.0 mi NW 3.5 mph - N/A   Clear
4:15 PM 56.1 °F - 45.9 °F 68% 29.80 in 10.0 mi West 6.9 mph - N/A   Clear
4:35 PM 53.2 °F - 45.0 °F 73% 29.80 in 10.0 mi WSW 6.9 mph - N/A   Clear
4:55 PM 50.0 °F - 43.7 °F 79% 29.80 in 10.0 mi West 8.1 mph - N/A   Clear
5:15 PM 49.1 °F - 42.6 °F 78% 29.80 in 10.0 mi West 4.6 mph - N/A   Clear
5:35 PM 48.2 °F - 41.9 °F 79% 29.80 in 10.0 mi WSW 5.8 mph - N/A   Clear
5:55 PM 47.5 °F - 41.9 °F 81% 29.78 in 10.0 mi SSW 4.6 mph - N/A   Clear
6:15 PM 46.4 °F 44.3 °F 41.5 °F 83% 29.78 in 10.0 mi South 4.6 mph - N/A   Clear
6:35 PM 46.4 °F 44.3 °F 41.4 °F 83% 29.76 in 10.0 mi SSE 4.6 mph - N/A   Clear
6:55 PM 44.8 °F 41.6 °F 41.0 °F 87% 29.75 in 10.0 mi ESE 5.8 mph - N/A   Clear
7:15 PM 45.0 °F - 41.7 °F 88% 29.74 in 10.0 mi Calm Calm - N/A   Clear
7:35 PM 45.3 °F 44.0 °F 41.4 °F 86% 29.73 in 10.0 mi ENE 3.5 mph - N/A   Clear
7:55 PM 43.9 °F - 41.0 °F 90% 29.73 in 10.0 mi Calm Calm - N/A   Clear
8:15 PM 42.6 °F 40.9 °F 40.3 °F 91% 29.71 in 10.0 mi East 3.5 mph - N/A   Clear
8:35 PM 42.6 °F - 40.6 °F 93% 29.70 in 10.0 mi Calm Calm - N/A   Clear
8:55 PM 43.0 °F - 41.4 °F 94% 29.68 in 10.0 mi Calm Calm - N/A   Mostly Cloudy
9:15 PM 47.5 °F - 42.6 °F 83% 29.66 in 10.0 mi WSW 3.5 mph - N/A   Mostly Cloudy
9:35 PM 50.7 °F - 44.4 °F 79% 29.64 in 10.0 mi WSW 10.4 mph - N/A   Mostly Cloudy
9:55 PM 55.8 °F - 46.4 °F 71% 29.63 in 10.0 mi SW 8.1 mph - N/A   Mostly Cloudy
10:15 PM 55.4 °F - 46.4 °F 72% 29.62 in 10.0 mi WSW 5.8 mph - N/A   Overcast
10:35 PM 55.9 °F - 46.9 °F 72% 29.60 in 10.0 mi WSW 13.8 mph 20.7 mph N/A   Mostly Cloudy
10:55 PM 57.2 °F - 47.5 °F 70% 29.59 in 10.0 mi WSW 15.0 mph - N/A   Overcast
11:15 PM 57.0 °F - 47.7 °F 71% 29.59 in 10.0 mi WSW 11.5 mph 20.7 mph N/A   Overcast
11:35 PM 56.3 °F - 47.8 °F 73% 29.58 in 10.0 mi WSW 11.5 mph 17.3 mph N/A   Overcast
11:55 PM 57.0 °F - 48.2 °F 72% 29.57 in 10.0 mi WSW 17.3 mph 26.5 mph N/A   Overcast